Printer-friendly version

IAU Minor Planet Center

Minor Planet Center

MPEC 2007-S62 : 2007 SR11

The following Minor Planet Electronic Circular may be linked-to from your own Web pages, but must not otherwise be redistributed electronically.


Read MPEC 2007-S61 Read MPEC 2007-S63


M.P.E.C. 2007-S62                                Issued 2007 Sept. 28, 12:35 UT

     The Minor Planet Electronic Circulars contain information on unusual
         minor planets and routine data on comets.  They are published
   on behalf of Commission 20 of the International Astronomical Union by the
          Minor Planet Center, Smithsonian Astrophysical Observatory,
                          Cambridge, MA 02138, U.S.A.

             Prepared using the Tamkin Foundation Computer Network

                              MPC@CFA.HARVARD.EDU
          URL http://www.cfa.harvard.edu/iau/mpc.html  ISSN 1523-6714

                                   2007 SR11

Observations:
     K07S11R  C2007 09 26.34262 03 28 32.88 +23 00 20.3          20.2 V ES062G96
     K07S11R  C2007 09 26.34906 03 28 31.90 +23 00 12.8          20.7 V ES062G96
     K07S11R  C2007 09 26.35567 03 28 30.93 +23 00 05.6          21.1 V ES062G96
     K07S11R  C2007 09 26.36214 03 28 30.03 +22 59 57.9          20.6 V ES062G96
     K07S11R* C2007 09 26.41468 03 28 22.15 +22 58 57.8          20.1 V ES062G96
     K07S11R  C2007 09 26.42008 03 28 21.28 +22 58 51.2          21.2 V ES062G96
     K07S11R  C2007 09 26.42545 03 28 20.49 +22 58 44.8          20.1 V ES062G96
     K07S11R  C2007 09 26.43088 03 28 19.66 +22 58 39.4          20.8 V ES062G96
     K07S11R  C2007 09 26.50983 03 28 07.86 +22 57 04.6          19.9 V ES062G96
     K07S11R  C2007 09 26.51091 03 28 07.68 +22 57 03.1          20.1 V ES062G96
     K07S11R  C2007 09 26.51207 03 28 07.46 +22 57 02.3          19.5 V ES062G96
     K07S11R  C2007 09 26.51317 03 28 07.39 +22 57 00.2          20.5 V ES062G96
     K07S11R  C2007 09 27.00910 03 27 03.98 +22 47 05.5                 ES062J95
     K07S11R  C2007 09 27.09564 03 26 51.63 +22 45 27.6          20.1 R ES062J95
     K07S11R  C2007 09 27.39767 03 26 11.76 +22 39 52.3          20.7 V ES062G96
     K07S11R  C2007 09 27.40333 03 26 10.96 +22 39 45.8          19.7 V ES062G96
     K07S11R  C2007 09 27.40921 03 26 10.06 +22 39 39.0          19.9 V ES062G96
     K07S11R  C2007 09 27.41516 03 26 09.20 +22 39 32.6          20.8 V ES062G96
     K07S11R  C2007 09 27.46589 03 26 01.73 +22 38 33.6          20.6 V ES062G96
     K07S11R  C2007 09 27.46642 03 26 01.61 +22 38 33.7          20.4 V ES062G96
     K07S11R  C2007 09 27.46696 03 26 01.47 +22 38 32.7          20.5 V ES062G96
     K07S11R  C2007 09 27.46749 03 26 01.45 +22 38 31.9          20.1 V ES062G96

Observer details:
G96 Mt. Lemmon Survey.  Observer A. Boattini.  Measurers E. C. Beshore,
    A. Boattini, G. J. Garradd, A. R. Gibbs, A. D. Grauer, R. E. Hill,
    R. A. Kowalski, S. M. Larson, R. H. McNaught.  1.5-m reflector + CCD.
J95 Great Shefford.  Observer P. Birtwhistle.  0.40-m f/6.0 Schmidt-Cassegrain
    + CCD.

Orbital elements:
2007 SR11                                           PHA, Earth MOID = 0.0206 AU
Epoch 2007 Oct. 27.0 TT = JDT 2454400.5                 MPC
M  20.13415              (2000.0)            P               Q
n   0.26477171     Peri.   98.28576     +0.73184906     +0.68127615
a   2.4019004      Node   218.77313     -0.63492725     +0.67308787
e   0.6004419      Incl.    1.47475     -0.24751634     +0.28777685
P   3.72           H   21.9           G   0.15           U   8
Residuals in seconds of arc
070926 G96  0.2-  0.2+    070926 G96  0.4+  0.1+    070927 G96  0.6-  0.0
070926 G96  0.6-  0.0     070926 G96  0.1+  0.1-    070927 G96  0.2-  0.4+
070926 G96  0.4-  0.3+    070926 G96  0.5-  0.5+    070927 G96  0.7+  0.0
070926 G96  0.5+  0.1-    070926 G96  0.8+  0.2-    070927 G96  0.1+  0.7+
070926 G96  0.4+  0.2+    070927 J95  0.2-  0.2-    070927 G96  0.7-  0.4+
070926 G96  0.4-  0.2-    070927 J95  0.5+  0.4-    070927 G96  0.1+  0.2+
070926 G96  0.1-  0.3-    070927 G96  0.8-  0.2+
070926 G96  0.3-  0.7+    070927 G96  0.2-  0.1+

Ephemeris:
2007 SR11                a,e,i = 2.40, 0.60, 1                   q = 0.9597
Date    TT    R. A. (2000) Decl.     Delta      r     Elong.  Phase     V
2007 09 27    03 27.07   +22 47.7    0.200    1.137   128.2    43.9    20.4
2007 10 07    03 05.96   +19 49.9    0.248    1.208   143.6    29.4    20.6
2007 10 17    02 46.89   +17 18.2    0.305    1.285   158.6    16.5    20.7
2007 10 27    02 31.19   +15 15.0    0.374    1.365   172.7     5.3    20.9
2007 11 06    02 19.84   +13 44.5    0.458    1.448   174.2     4.0    21.4

Timothy B. Spahr             (C) Copyright 2007 MPC           M.P.E.C. 2007-S62

Read MPEC 2007-S61 Read MPEC 2007-S63


Our Web policy. Index to the CBAT/MPC/ICQ pages.


Valid HTML 4.01!